sat.trackr.live / text

‹ back to catalog

UNKNOWN

NORAD 81311

UNKNOWN UNKNOWN UNKNOWN

§ Identity

Operator
Country
Launch date
Launch site
Launch vehicle
Mass (kg)
RCS (m²)

External: N2YO · Heavens-Above

§ Orbital elements

Epoch: 2026-05-20T03:29:18.495744Z

Period
98.85 min
Inclination
98.7074°
Eccentricity
0.0130817
Mean motion
14.56782336 rev/d
Perigee alt
610.9 km
Apogee alt
796.2 km
Semi-major
7,081.7 km
B*
6.1926e-5
RAAN
209.6987°
Arg perigee
0.8287°
Mean anomaly
28.9911°
Rev number
66,265

§ Raw data

UNKNOWN1 81311U          26140.14535296  .00000252  00000+0  61926-4 0  99982 81311  98.7074 209.6987 0130817   0.8287  28.9911 14.56782336662657

JSON: /api/v1/satellites/81311 · /tle

For live sub-satellite position, see the globe view (requires WebGL).

§ Visibility from observer

Set your observer location to see the next 7 days of passes ≥ 10°. The values pass through the URL so the page stays shareable.

No JS? Fill the form by hand. The geolocation button needs JavaScript.